Weather History for EHEH - November, 2012

Change the Weather History Date:

Thursday, November 15, 2012

  Actual Average Record
Temperature  
Mean Temperature 38 °F -  
Max Temperature 43 °F 44 °F 60 °F (2006)
Min Temperature 34 °F 34 °F 24 °F (1996)
Degree Days  
Heating Degree Days 26    
Moisture  
Dew Point 36 °F    
Average Humidity 87    
Maximum Humidity 100    
Minimum Humidity 70    
Precipitation  
Precipitation 0.00 in - - ()
Sea Level Pressure  
Sea Level Pressure 30.23 in    
Wind  
Wind Speed 4 mph ()    
Max Wind Speed 8 mph    
Max Gust Speed -    
Visibility 4.0 miles    
Events      
Averages and records for this station are not official NWS values.
T = Trace of Precipitation, MM = Missing Value Source: Averaged Metar Reports

Daily Weather History Graph

Daily Weather History Graph

Search for Another Location

Airport or City:

Trip Planner

Search our weather history database for the weather conditions in past years. The results will help you decide how hot, cold, wet, or windy it might be!

Date:

Astronomy

Nov. 15, 2012 Rise Set
Actual Time 7:56 AM CET 4:48 PM CET
Civil Twilight 7:19 AM CET 5:25 PM CET
Nautical Twilight 6:39 AM CET 6:06 PM CET
Astronomical Twilight 5:59 AM CET 6:45 PM CET
Moon 9:44 AM CET (11/15) 6:14 PM CET (11/15)
Length of Visible Light 10h 05m
Length of Day
8h 52m
Waxing Crescent, 4% of the Moon is Illuminated
Nov 15
Waxing Crescent
Nov 20
First Quarter
Nov 28
Full
Dec 6
Last Quarter
Dec 13
New

Hourly Weather History & Observations

Time (CET) Temp. Windchill Dew Point Humidity Pressure Visibility Wind Dir Wind Speed Gust Speed Precip Events Conditions
12:18 AM 35.6 °F - 33.8 °F 93% 30.27 in - ESE 2.3 mph - N/A   Mist
12:25 AM 35.6 °F - 35.6 °F 100% 30.27 in - ESE 2.3 mph - N/A   Mist
12:29 AM 35.6 °F 32.8 °F 35.6 °F 100% 30.27 in 3.1 mi ESE 3.5 mph - N/A   Mist
12:35 AM 35.6 °F 32.8 °F 35.6 °F 100% 30.27 in - ESE 3.5 mph - N/A   Mist
12:55 AM 35.6 °F 32.8 °F 35.6 °F 100% 30.27 in 2.8 mi SE 3.5 mph - N/A   Mist
1:00 AM 36 °F - 35 °F 93% 30.28 in 3 mi SE 4.5 mph - -   Mist
1:03 AM 35.6 °F 30.7 °F 35.6 °F 100% 30.27 in 3.1 mi SE 5.8 mph - N/A   Mist
1:07 AM 35.6 °F 31.7 °F 35.6 °F 100% 30.27 in - SE 4.6 mph - N/A   Mist
1:25 AM 35.6 °F 32.8 °F 35.6 °F 100% 30.27 in - SE 3.5 mph - N/A   Mist
1:55 AM 35.6 °F 30.7 °F 33.8 °F 93% 30.27 in - SE 5.8 mph - N/A   Mist
2:00 AM 35.6 °F 30.7 °F 33.8 °F 93% 30.27 in - SE 5.8 mph - N/A   Mist
2:05 AM 35.6 °F 30.7 °F 33.8 °F 93% 30.27 in - SE 5.8 mph - N/A   Mist
2:07 AM 33.8 °F 28.6 °F 33.8 °F 100% 30.27 in - SE 5.8 mph - N/A   Partly Cloudy
2:13 AM 35.6 °F 29.9 °F 33.8 °F 93% 30.27 in - SE 6.9 mph - N/A   Mostly Cloudy
2:25 AM 35.6 °F 30.7 °F 35.6 °F 100% 30.24 in - SSE 5.8 mph - N/A   Overcast
2:29 AM 35.6 °F 30.7 °F 35.6 °F 100% 30.24 in 2.8 mi SSE 5.8 mph - N/A   Overcast
2:41 AM 35.6 °F 30.7 °F 35.6 °F 100% 30.24 in - SSE 5.8 mph - N/A   Overcast
2:46 AM 35.6 °F 31.7 °F 35.6 °F 100% 30.24 in 3.1 mi SE 4.6 mph - N/A   Overcast
2:55 AM 35.6 °F 31.7 °F 35.6 °F 100% 30.24 in 3.1 mi SE 4.6 mph - N/A   Overcast
3:07 AM 37.4 °F 34.9 °F 35.6 °F 93% 30.24 in 3.1 mi SE 3.5 mph - N/A   Overcast
3:25 AM 37.4 °F 34.9 °F 35.6 °F 93% 30.24 in 3.1 mi SE 3.5 mph - N/A   Overcast
3:55 AM 37.4 °F 32.8 °F 37.4 °F 100% 30.24 in 3.1 mi SSE 5.8 mph - N/A   Overcast
4:00 AM 38 °F - 36 °F 92% 30.27 in 3 mi SSE 4.5 mph - -   Mist
4:25 AM 37.4 °F 33.8 °F 37.4 °F 100% 30.24 in 3.1 mi SE 4.6 mph - N/A   Overcast
4:55 AM 39.2 °F 37.0 °F 37.4 °F 93% 30.24 in 3.7 mi SSE 3.5 mph - N/A   Overcast
4:56 AM 39.2 °F 37.0 °F 37.4 °F 93% 30.24 in 3.7 mi SSE 3.5 mph - N/A   Overcast
5:25 AM 39.2 °F 37.0 °F 37.4 °F 93% 30.24 in 3.7 mi SSE 3.5 mph - N/A   Overcast
5:55 AM 39.2 °F - 37.4 °F 93% 30.24 in 3.7 mi SE 1.2 mph - N/A   Overcast
6:25 AM 39.2 °F 37.0 °F 37.4 °F 93% 30.24 in 3.7 mi ESE 3.5 mph - N/A   Overcast
6:55 AM 39.2 °F 37.0 °F 37.4 °F 93% 30.24 in 3.7 mi SE 3.5 mph - N/A   Overcast
7:00 AM 39 °F - 38 °F 92% 30.26 in 4 mi SE 4.5 mph - -   Mist
7:04 AM 39.2 °F 37.0 °F 37.4 °F 93% 30.24 in 3.7 mi SE 3.5 mph - N/A   Overcast
7:25 AM 39.2 °F 37.0 °F 37.4 °F 93% 30.24 in 3.7 mi SSE 3.5 mph - N/A   Overcast
7:55 AM 39.2 °F - 37.4 °F 93% 30.24 in 3.7 mi SE 2.3 mph - N/A   Overcast
8:25 AM 39.2 °F - 37.4 °F 93% 30.27 in 4.3 mi SSE 2.3 mph - N/A   Overcast
8:43 AM 39.2 °F - 37.4 °F 93% 30.27 in 4.3 mi SSE 2.3 mph - N/A   Overcast
8:48 AM 39.2 °F - 37.4 °F 93% 30.27 in 4.3 mi SE 2.3 mph - N/A   Overcast
8:55 AM 39.2 °F - 37.4 °F 93% 30.27 in 4.3 mi SE 2.3 mph - N/A   Overcast
8:58 AM 41.0 °F - 37.4 °F 87% 30.27 in 4.3 mi SE 2.3 mph - N/A   Overcast
9:02 AM 41.0 °F - 37.4 °F 87% 30.27 in 4.3 mi SE 2.3 mph - N/A   Overcast
9:25 AM 41.0 °F - 39.2 °F 93% 30.27 in 5.0 mi ESE 2.3 mph - N/A   Overcast
9:55 AM 41.0 °F 38.0 °F 37.4 °F 87% 30.27 in 5.0 mi ESE 4.6 mph - N/A   Overcast
10:00 AM 41 °F - 38 °F 83% 30.28 in 5 mi ESE 4.5 mph - -   Mist
10:05 AM 41.0 °F 38.0 °F 37.4 °F 87% 30.27 in 5.0 mi SE 4.6 mph - N/A   Overcast
10:09 AM 41.0 °F 37.1 °F 37.4 °F 87% 30.27 in 5.0 mi SE 5.8 mph - N/A   Overcast
10:20 AM 41.0 °F 37.1 °F 37.4 °F 87% 30.27 in 5.0 mi ESE 5.8 mph - N/A   Overcast
10:25 AM 41.0 °F 37.1 °F 37.4 °F 87% 30.27 in 5.0 mi ESE 5.8 mph - N/A   Overcast
10:28 AM 41.0 °F 37.1 °F 37.4 °F 87% 30.27 in 5.0 mi ESE 5.8 mph - N/A   Overcast
10:43 AM 41.0 °F 37.1 °F 35.6 °F 81% 30.27 in 4.3 mi ESE 5.8 mph - N/A   Overcast
10:50 AM 41.0 °F 36.4 °F 35.6 °F 81% 30.27 in 5.0 mi SE 6.9 mph - N/A   Overcast
10:55 AM 41.0 °F 36.4 °F 35.6 °F 81% 30.27 in 5.0 mi SE 6.9 mph - N/A   Overcast
11:03 AM 42.8 °F 38.6 °F 37.4 °F 81% 30.24 in 5.6 mi SSE 6.9 mph - N/A   Mostly Cloudy
11:25 AM 42.8 °F 38.0 °F 35.6 °F 76% 30.24 in 5.6 mi SSE 8.1 mph - N/A   Overcast
11:55 AM 42.8 °F 39.3 °F 35.6 °F 76% 30.24 in 5.6 mi ESE 5.8 mph - N/A   Mostly Cloudy
12:19 PM 42.8 °F 38.6 °F 37.4 °F 81% 30.24 in 4.3 mi SSE 6.9 mph - N/A   Overcast
12:25 PM 42.8 °F 38.6 °F 37.4 °F 81% 30.24 in 5.0 mi SE 6.9 mph - N/A   Overcast
12:55 PM 42.8 °F 40.1 °F 35.6 °F 76% 30.21 in 4.3 mi ESE 4.6 mph - N/A   Overcast
12:59 PM 42.8 °F 39.3 °F 35.6 °F 76% 30.21 in 4.3 mi SE 5.8 mph - N/A   Haze
1:00 PM 43 °F - 36 °F 70% 30.24 in 4 mi SE 6.7 mph - -   Light Haze
1:25 PM 42.8 °F 39.3 °F 37.4 °F 81% 30.21 in 4.3 mi SSE 5.8 mph - N/A   Haze
1:47 PM 42.8 °F 40.1 °F 37.4 °F 81% 30.21 in - ESE 4.6 mph - N/A   Haze
1:51 PM 42.8 °F 39.3 °F 37.4 °F 81% 30.21 in 3.7 mi SE 5.8 mph - N/A   Haze
1:55 PM 42.8 °F 39.3 °F 37.4 °F 81% 30.21 in 3.7 mi SE 5.8 mph - N/A   Haze
2:08 PM 42.8 °F 39.3 °F 37.4 °F 81% 30.21 in 4.3 mi SE 5.8 mph - N/A   Haze
2:25 PM 42.8 °F 40.1 °F 37.4 °F 81% 30.21 in 4.3 mi East 4.6 mph - N/A   Haze
2:55 PM 42.8 °F 40.1 °F 37.4 °F 81% 30.21 in 4.3 mi SSE 4.6 mph - N/A   Haze
3:21 PM 42.8 °F 40.1 °F 37.4 °F 81% 30.18 in 5.0 mi SE 4.6 mph - N/A   Haze
3:25 PM 42.8 °F 40.1 °F 37.4 °F 81% 30.18 in 5.0 mi SE 4.6 mph - N/A   Haze
3:33 PM 42.8 °F 40.1 °F 37.4 °F 81% 30.18 in 4.3 mi ESE 4.6 mph - N/A   Haze
3:55 PM 42.8 °F 39.3 °F 35.6 °F 76% 30.18 in 5.0 mi ESE 5.8 mph - N/A   Haze
4:00 PM 42 °F - 36 °F 72% 30.20 in 5 mi ESE 6.7 mph - -   Light Haze
4:25 PM 42.8 °F 39.3 °F 35.6 °F 76% 30.18 in 4.3 mi East 5.8 mph - N/A   Haze
4:55 PM 42.8 °F 41.1 °F 35.6 °F 76% 30.18 in 3.7 mi ESE 3.5 mph - N/A   Haze
5:25 PM 41.0 °F 39.0 °F 35.6 °F 81% 30.18 in 3.7 mi SE 3.5 mph - N/A   Haze
5:55 PM 41.0 °F 39.0 °F 35.6 °F 81% 30.18 in 3.7 mi South 3.5 mph - N/A   Haze
6:25 PM 41.0 °F 38.0 °F 35.6 °F 81% 30.18 in 3.7 mi East 4.6 mph - N/A   Haze
6:55 PM 41.0 °F 38.0 °F 35.6 °F 81% 30.18 in 3.1 mi SE 4.6 mph - N/A   Haze
7:00 PM 41 °F - 36 °F 74% 30.19 in 3 mi SE 6.7 mph - -   Light Haze
7:25 PM 41.0 °F 38.0 °F 35.6 °F 81% 30.18 in 3.1 mi SE 4.6 mph - N/A   Haze
7:55 PM 41.0 °F 39.0 °F 35.6 °F 81% 30.18 in 3.1 mi SE 3.5 mph - N/A   Haze
8:25 PM 41.0 °F 39.0 °F 35.6 °F 81% 30.18 in 3.7 mi ESE 3.5 mph - N/A   Haze
8:31 PM 41.0 °F 38.0 °F 35.6 °F 81% 30.18 in 3.7 mi South 4.6 mph - N/A   Haze
8:37 PM 41.0 °F 39.0 °F 35.6 °F 81% 30.18 in 3.7 mi South 3.5 mph - N/A   Haze
8:55 PM 41.0 °F 38.0 °F 35.6 °F 81% 30.18 in 4.3 mi South 4.6 mph - N/A   Haze
9:06 PM 41.0 °F 37.1 °F 35.6 °F 81% 30.18 in 4.3 mi South 5.8 mph - N/A   Haze
9:10 PM 41.0 °F 37.1 °F 35.6 °F 81% 30.18 in 4.3 mi SSE 5.8 mph - N/A   Haze
9:25 PM 41.0 °F 37.1 °F 35.6 °F 81% 30.15 in 4.3 mi SSE 5.8 mph - N/A   Haze
9:55 PM 39.2 °F 37.0 °F 35.6 °F 87% 30.18 in 3.7 mi SSE 3.5 mph - N/A   Haze
10:00 PM 40 °F - 35 °F 77% 30.19 in 4 mi SSE 4.5 mph - -   Light Haze
10:25 PM 39.2 °F 37.0 °F 35.6 °F 87% 30.15 in 3.7 mi SE 3.5 mph - N/A   Haze
10:55 PM 39.2 °F 37.0 °F 35.6 °F 87% 30.15 in 3.1 mi SE 3.5 mph - N/A   Overcast
11:25 PM 39.2 °F 34.2 °F 35.6 °F 87% 30.15 in 3.1 mi SE 6.9 mph - N/A   Overcast
11:55 PM 39.2 °F 35.9 °F 35.6 °F 87% 30.15 in 3.1 mi SE 4.6 mph - N/A   Overcast